Time,TemperatureF,DewpointF,PressureIn,WindDirection,WindDirectionDegrees,WindSpeedMPH,WindSpeedGustMPH,Humidity,HourlyPrecipIn,Conditions,Clouds,dailyrainin,SoftwareType,DateUTC
2013-03-07 00:01:00,55.6,31.0,30.23,ENE,77,0.0,0.0,39,0.00,,,0.00,WeatherTracker,2013-03-07 08:01:00,
2013-03-07 00:06:00,55.8,31.2,30.23,WSW,257,4.0,5.0,39,0.00,,,0.00,WeatherTracker,2013-03-07 08:06:00,
2013-03-07 00:11:00,55.9,31.3,30.23,SSW,204,0.0,0.0,39,0.00,,,0.00,WeatherTracker,2013-03-07 08:11:00,
2013-03-07 00:16:00,55.9,32.0,30.23,SSW,213,0.0,0.0,40,0.00,,,0.00,WeatherTracker,2013-03-07 08:16:00,
2013-03-07 00:21:00,55.9,32.0,30.23,SSW,213,0.0,0.0,40,0.00,,,0.00,WeatherTracker,2013-03-07 08:21:00,
2013-03-07 00:26:00,55.8,32.4,30.23,SSW,208,3.0,4.0,41,0.00,,,0.00,WeatherTracker,2013-03-07 08:26:00,
2013-03-07 00:31:00,55.6,32.3,30.23,SSW,213,3.0,3.0,41,0.00,,,0.00,WeatherTracker,2013-03-07 08:31:00,
2013-03-07 00:36:00,55.6,32.3,30.23,WSW,254,0.0,5.0,41,0.00,,,0.00,WeatherTracker,2013-03-07 08:36:00,
2013-03-07 00:41:00,55.6,32.9,30.23,WSW,246,2.0,4.0,42,0.00,,,0.00,WeatherTracker,2013-03-07 08:41:00,
2013-03-07 00:46:00,55.4,32.7,30.23,WSW,251,3.0,4.0,42,0.00,,,0.00,WeatherTracker,2013-03-07 08:46:00,
2013-03-07 00:51:00,55.4,32.7,30.23,WSW,254,0.0,0.0,42,0.00,,,0.00,WeatherTracker,2013-03-07 08:51:00,
2013-03-07 00:56:00,55.4,33.8,30.23,WSW,248,0.0,0.0,43,0.00,,,0.00,WeatherTracker,2013-03-07 08:56:00,
2013-03-07 01:01:00,55.2,33.8,30.23,WSW,248,0.0,0.0,43,0.00,,,0.00,WeatherTracker,2013-03-07 09:01:00,
2013-03-07 01:06:00,55.2,33.8,30.23,WSW,248,0.0,0.0,44,0.00,,,0.00,WeatherTracker,2013-03-07 09:06:00,
2013-03-07 01:11:00,55.2,33.8,30.23,WSW,248,0.0,0.0,44,0.00,,,0.00,WeatherTracker,2013-03-07 09:11:00,
2013-03-07 01:16:00,55.0,33.8,30.23,WSW,248,0.0,0.0,44,0.00,,,0.00,WeatherTracker,2013-03-07 09:16:00,
2013-03-07 01:21:00,55.2,33.8,30.23,WSW,248,0.0,0.0,45,0.00,,,0.00,WeatherTracker,2013-03-07 09:21:00,
2013-03-07 01:26:00,55.0,33.8,30.23,WSW,248,0.0,0.0,45,0.00,,,0.00,WeatherTracker,2013-03-07 09:26:00,
2013-03-07 01:31:00,55.0,33.8,30.23,WSW,248,0.0,0.0,45,0.00,,,0.00,WeatherTracker,2013-03-07 09:31:00,
2013-03-07 01:36:00,55.0,33.8,30.23,WSW,248,0.0,0.0,45,0.00,,,0.00,WeatherTracker,2013-03-07 09:36:00,
2013-03-07 01:41:00,54.9,33.8,30.23,WSW,248,0.0,0.0,45,0.00,,,0.00,WeatherTracker,2013-03-07 09:41:00,
2013-03-07 01:46:00,54.7,33.8,30.23,WSW,248,0.0,0.0,45,0.00,,,0.00,WeatherTracker,2013-03-07 09:46:00,
2013-03-07 01:51:00,54.5,35.6,30.23,WSW,248,0.0,0.0,46,0.00,,,0.00,WeatherTracker,2013-03-07 09:51:00,
2013-03-07 01:56:00,54.5,35.6,30.23,WSW,248,0.0,0.0,46,0.00,,,0.00,WeatherTracker,2013-03-07 09:56:00,
2013-03-07 02:01:00,54.3,33.8,30.23,WSW,248,0.0,0.0,46,0.00,,,0.00,WeatherTracker,2013-03-07 10:01:00,
2013-03-07 02:06:00,54.3,33.8,30.23,WSW,248,0.0,0.0,46,0.00,,,0.00,WeatherTracker,2013-03-07 10:06:00,
2013-03-07 02:11:00,54.3,33.8,30.23,WSW,248,0.0,0.0,46,0.00,,,0.00,WeatherTracker,2013-03-07 10:11:00,
2013-03-07 02:16:00,54.5,35.6,30.23,WSW,248,0.0,0.0,47,0.00,,,0.00,WeatherTracker,2013-03-07 10:16:00,
2013-03-07 02:21:00,54.7,35.6,30.23,WSW,248,0.0,0.0,47,0.00,,,0.00,WeatherTracker,2013-03-07 10:21:00,
2013-03-07 02:26:00,54.9,35.6,30.23,WSW,248,0.0,0.0,47,0.00,,,0.00,WeatherTracker,2013-03-07 10:26:00,
2013-03-07 02:31:00,55.0,35.6,30.23,WSW,248,3.0,3.0,47,0.00,,,0.00,WeatherTracker,2013-03-07 10:31:00,
2013-03-07 02:36:00,54.9,35.6,30.23,WSW,247,0.0,0.0,47,0.00,,,0.00,WeatherTracker,2013-03-07 10:36:00,
2013-03-07 02:41:00,54.7,35.6,30.23,West,273,0.0,0.0,47,0.00,,,0.00,WeatherTracker,2013-03-07 10:41:00,
2013-03-07 02:46:00,54.7,35.6,30.23,WSW,258,0.0,0.0,47,0.00,,,0.00,WeatherTracker,2013-03-07 10:46:00,
2013-03-07 02:51:00,54.7,35.6,30.23,WSW,244,0.0,0.0,47,0.00,,,0.00,WeatherTracker,2013-03-07 10:51:00,
2013-03-07 02:56:00,54.9,35.6,30.23,SW,234,4.0,5.0,48,0.00,,,0.00,WeatherTracker,2013-03-07 10:56:00,
2013-03-07 03:01:00,54.9,35.6,30.23,WSW,258,4.0,4.0,48,0.04,,,0.04,WeatherTracker,2013-03-07 11:01:00,
2013-03-07 03:06:00,54.9,35.6,30.23,WSW,247,4.0,4.0,48,0.04,,,0.04,WeatherTracker,2013-03-07 11:06:00,
2013-03-07 03:11:00,54.7,35.6,30.23,WSW,253,4.0,4.0,48,0.04,,,0.04,WeatherTracker,2013-03-07 11:11:00,
2013-03-07 03:16:00,54.7,35.6,30.23,West,262,4.0,4.0,48,0.04,,,0.04,WeatherTracker,2013-03-07 11:16:00,
2013-03-07 03:21:00,54.7,37.4,30.23,WSW,257,4.0,5.0,49,0.04,,,0.04,WeatherTracker,2013-03-07 11:21:00,
2013-03-07 03:26:00,54.7,37.4,30.23,WSW,238,3.0,3.0,49,0.04,,,0.04,WeatherTracker,2013-03-07 11:26:00,
2013-03-07 03:31:00,54.5,37.4,30.23,West,259,0.0,3.0,49,0.04,,,0.04,WeatherTracker,2013-03-07 11:31:00,
2013-03-07 03:36:00,54.5,37.4,30.23,West,268,3.0,4.0,49,0.04,,,0.04,WeatherTracker,2013-03-07 11:36:00,
2013-03-07 03:41:00,54.7,37.4,30.23,West,260,0.0,0.0,49,0.08,,,0.08,WeatherTracker,2013-03-07 11:41:00,
2013-03-07 03:46:00,54.5,37.4,30.23,West,260,0.0,0.0,49,0.08,,,0.08,WeatherTracker,2013-03-07 11:46:00,
2013-03-07 03:51:00,54.5,37.4,30.23,West,277,0.0,0.0,49,0.08,,,0.08,WeatherTracker,2013-03-07 11:51:00,
2013-03-07 03:56:00,54.3,35.6,30.23,West,277,0.0,0.0,49,0.08,,,0.08,WeatherTracker,2013-03-07 11:56:00,
2013-03-07 04:01:00,54.3,35.6,30.23,WSW,248,0.0,0.0,49,0.04,,,0.08,WeatherTracker,2013-03-07 12:01:00,
2013-03-07 04:06:00,54.3,35.6,30.23,WSW,248,0.0,0.0,49,0.04,,,0.08,WeatherTracker,2013-03-07 12:06:00,
2013-03-07 04:11:00,54.3,35.6,30.23,WSW,248,0.0,0.0,49,0.04,,,0.08,WeatherTracker,2013-03-07 12:11:00,
2013-03-07 04:16:00,54.1,35.6,30.23,WSW,248,0.0,0.0,49,0.04,,,0.08,WeatherTracker,2013-03-07 12:16:00,
2013-03-07 04:21:00,54.1,35.6,30.23,NNE,27,0.0,0.0,50,0.04,,,0.08,WeatherTracker,2013-03-07 12:21:00,
2013-03-07 04:26:00,54.0,35.6,30.23,NE,55,0.0,0.0,50,0.04,,,0.08,WeatherTracker,2013-03-07 12:26:00,
2013-03-07 04:31:00,53.8,35.6,30.23,NE,55,0.0,0.0,50,0.04,,,0.08,WeatherTracker,2013-03-07 12:31:00,
2013-03-07 04:36:00,53.8,35.6,30.23,NE,55,0.0,0.0,50,0.04,,,0.08,WeatherTracker,2013-03-07 12:36:00,
2013-03-07 04:41:00,54.0,35.6,30.23,NE,55,0.0,0.0,50,0.00,,,0.08,WeatherTracker,2013-03-07 12:41:00,
2013-03-07 04:46:00,54.0,35.6,30.23,NE,55,0.0,0.0,50,0.00,,,0.08,WeatherTracker,2013-03-07 12:46:00,
2013-03-07 04:51:00,54.0,35.6,30.23,NE,55,0.0,0.0,50,0.00,,,0.08,WeatherTracker,2013-03-07 12:51:00,
2013-03-07 04:56:00,53.8,35.6,30.23,NE,55,0.0,0.0,50,0.00,,,0.08,WeatherTracker,2013-03-07 12:56:00,
2013-03-07 05:01:00,53.8,35.6,30.23,NE,55,0.0,0.0,50,0.00,,,0.08,WeatherTracker,2013-03-07 13:01:00,
2013-03-07 05:06:00,54.0,35.6,30.23,NE,55,0.0,0.0,51,0.00,,,0.08,WeatherTracker,2013-03-07 13:06:00,
2013-03-07 05:11:00,54.1,35.6,30.23,NE,55,0.0,0.0,51,0.00,,,0.08,WeatherTracker,2013-03-07 13:11:00,
2013-03-07 05:16:00,54.1,35.6,30.23,NE,55,0.0,0.0,51,0.00,,,0.08,WeatherTracker,2013-03-07 13:16:00,
2013-03-07 05:21:00,54.3,35.6,30.20,NE,55,0.0,0.0,51,0.00,,,0.08,WeatherTracker,2013-03-07 13:21:00,
2013-03-07 05:26:00,54.3,35.6,30.20,NE,55,0.0,0.0,51,0.00,,,0.08,WeatherTracker,2013-03-07 13:26:00,
2013-03-07 05:31:00,54.3,35.6,30.20,NE,55,0.0,0.0,51,0.00,,,0.08,WeatherTracker,2013-03-07 13:31:00,
2013-03-07 05:36:00,54.1,35.6,30.20,NE,55,0.0,0.0,51,0.00,,,0.08,WeatherTracker,2013-03-07 13:36:00,
2013-03-07 05:41:00,54.1,35.6,30.20,NE,55,0.0,0.0,51,0.00,,,0.08,WeatherTracker,2013-03-07 13:41:00,
2013-03-07 05:46:00,54.0,35.6,30.20,NE,55,0.0,0.0,51,0.00,,,0.08,WeatherTracker,2013-03-07 13:46:00,
2013-03-07 05:51:00,54.1,35.6,30.20,NE,55,0.0,0.0,51,0.00,,,0.08,WeatherTracker,2013-03-07 13:51:00,
2013-03-07 05:56:00,54.1,35.6,30.20,NE,55,0.0,0.0,51,0.00,,,0.08,WeatherTracker,2013-03-07 13:56:00,
2013-03-07 06:01:00,54.1,35.6,30.20,NE,55,0.0,0.0,51,0.00,,,0.08,WeatherTracker,2013-03-07 14:01:00,
2013-03-07 06:06:00,54.0,35.6,30.20,NE,55,0.0,0.0,51,0.00,,,0.08,WeatherTracker,2013-03-07 14:06:00,
2013-03-07 06:11:00,54.0,35.6,30.20,NE,55,0.0,0.0,51,0.00,,,0.08,WeatherTracker,2013-03-07 14:11:00,
2013-03-07 06:16:00,54.0,37.4,30.20,NE,55,0.0,0.0,52,0.00,,,0.08,WeatherTracker,2013-03-07 14:16:00,
2013-03-07 06:21:00,54.0,37.4,30.23,NE,55,0.0,0.0,52,0.00,,,0.08,WeatherTracker,2013-03-07 14:21:00,
2013-03-07 06:26:00,54.0,37.4,30.23,NE,55,0.0,0.0,52,0.00,,,0.08,WeatherTracker,2013-03-07 14:26:00,
2013-03-07 06:31:00,54.0,37.4,30.23,NE,55,0.0,0.0,52,0.00,,,0.08,WeatherTracker,2013-03-07 14:31:00,
2013-03-07 06:36:00,54.1,37.4,30.23,NE,55,0.0,0.0,52,0.00,,,0.08,WeatherTracker,2013-03-07 14:36:00,
2013-03-07 06:41:00,54.3,37.4,30.23,NE,55,0.0,0.0,52,0.00,,,0.08,WeatherTracker,2013-03-07 14:41:00,
2013-03-07 06:46:00,54.3,37.4,30.23,NE,55,0.0,0.0,52,0.00,,,0.08,WeatherTracker,2013-03-07 14:46:00,
2013-03-07 06:51:00,54.5,37.4,30.23,NE,55,0.0,0.0,52,0.00,,,0.08,WeatherTracker,2013-03-07 14:51:00,
2013-03-07 06:56:00,54.3,37.4,30.23,SE,131,0.0,0.0,52,0.00,,,0.08,WeatherTracker,2013-03-07 14:56:00,
2013-03-07 07:01:00,54.3,37.4,30.23,SE,131,0.0,0.0,53,0.00,,,0.08,WeatherTracker,2013-03-07 15:01:00,
2013-03-07 07:06:00,54.5,39.2,30.23,SSE,151,0.0,0.0,53,0.00,,,0.08,WeatherTracker,2013-03-07 15:06:00,
2013-03-07 07:11:00,54.5,37.4,30.23,SSE,159,0.0,0.0,52,0.00,,,0.08,WeatherTracker,2013-03-07 15:11:00,
2013-03-07 07:16:00,54.5,39.2,30.23,SE,134,0.0,0.0,53,0.00,,,0.08,WeatherTracker,2013-03-07 15:16:00,
2013-03-07 07:21:00,54.5,37.4,30.23,SE,131,0.0,0.0,52,0.00,,,0.08,WeatherTracker,2013-03-07 15:21:00,
2013-03-07 07:26:00,54.5,37.4,30.23,SE,126,0.0,0.0,52,0.00,,,0.08,WeatherTracker,2013-03-07 15:26:00,
2013-03-07 07:31:00,54.7,39.2,30.23,SE,126,0.0,0.0,53,0.00,,,0.08,WeatherTracker,2013-03-07 15:31:00,
2013-03-07 07:36:00,54.9,37.4,30.23,SE,129,3.0,4.0,51,0.00,,,0.08,WeatherTracker,2013-03-07 15:36:00,
2013-03-07 07:41:00,54.7,37.4,30.23,SE,145,4.0,4.0,51,0.00,,,0.08,WeatherTracker,2013-03-07 15:41:00,
2013-03-07 07:47:00,54.5,37.4,30.23,SE,137,0.0,0.0,51,0.00,,,0.08,WeatherTracker,2013-03-07 15:47:00,
2013-03-07 07:52:00,54.7,37.4,30.23,SE,139,2.0,0.0,51,0.00,,,0.08,WeatherTracker,2013-03-07 15:52:00,
2013-03-07 07:57:00,54.9,37.4,30.23,ESE,123,0.0,0.0,50,0.00,,,0.08,WeatherTracker,2013-03-07 15:57:00,
2013-03-07 08:02:00,55.0,37.4,30.23,SSW,194,0.0,2.0,50,0.00,,,0.08,WeatherTracker,2013-03-07 16:02:00,
2013-03-07 08:07:00,55.2,37.4,30.23,SSE,159,0.0,0.0,49,0.00,,,0.08,WeatherTracker,2013-03-07 16:07:00,
2013-03-07 08:12:00,55.2,37.4,30.23,SE,140,0.0,0.0,49,0.00,,,0.08,WeatherTracker,2013-03-07 16:12:00,
2013-03-07 08:17:00,55.4,35.6,30.23,East,80,0.0,0.0,48,0.00,,,0.08,WeatherTracker,2013-03-07 16:17:00,
2013-03-07 08:22:00,55.4,35.6,30.23,ESE,114,0.0,5.0,48,0.00,,,0.08,WeatherTracker,2013-03-07 16:22:00,
2013-03-07 08:27:00,55.4,35.6,30.23,SE,133,3.0,4.0,48,0.00,,,0.08,WeatherTracker,2013-03-07 16:27:00,
2013-03-07 08:32:00,55.2,35.6,30.23,SE,130,0.0,4.0,47,0.00,,,0.08,WeatherTracker,2013-03-07 16:32:00,
2013-03-07 08:37:00,55.2,35.6,30.23,SE,144,3.0,4.0,47,0.00,,,0.08,WeatherTracker,2013-03-07 16:37:00,
2013-03-07 08:42:00,55.2,35.6,30.23,SE,139,4.0,4.0,47,0.00,,,0.08,WeatherTracker,2013-03-07 16:42:00,
2013-03-07 08:47:00,55.0,35.6,30.23,SE,124,2.0,2.0,47,0.00,,,0.08,WeatherTracker,2013-03-07 16:47:00,
2013-03-07 08:52:00,55.2,35.6,30.23,SE,136,0.0,0.0,46,0.00,,,0.08,WeatherTracker,2013-03-07 16:52:00,
2013-03-07 08:57:00,55.2,35.6,30.23,South,172,0.0,0.0,46,0.00,,,0.08,WeatherTracker,2013-03-07 16:57:00,
2013-03-07 09:02:00,55.4,35.6,30.23,SE,130,3.0,4.0,46,0.00,,,0.08,WeatherTracker,2013-03-07 17:02:00,
2013-03-07 09:07:00,55.2,35.6,30.23,ESE,115,0.0,3.0,46,0.00,,,0.08,WeatherTracker,2013-03-07 17:07:00,
2013-03-07 09:12:00,55.4,33.8,30.23,ESE,110,2.0,0.0,45,0.00,,,0.08,WeatherTracker,2013-03-07 17:12:00,
2013-03-07 09:17:00,55.4,33.8,30.23,East,81,0.0,0.0,45,0.00,,,0.08,WeatherTracker,2013-03-07 17:17:00,
2013-03-07 09:22:00,55.4,33.8,30.23,ESE,114,0.0,0.0,45,0.00,,,0.08,WeatherTracker,2013-03-07 17:22:00,
2013-03-07 09:27:00,55.4,33.8,30.23,East,83,0.0,0.0,44,0.00,,,0.08,WeatherTracker,2013-03-07 17:27:00,
2013-03-07 09:32:00,55.6,33.8,30.23,ENE,73,0.0,0.0,44,0.00,,,0.08,WeatherTracker,2013-03-07 17:32:00,
2013-03-07 09:37:00,55.4,33.8,30.23,East,101,0.0,0.0,44,0.00,,,0.08,WeatherTracker,2013-03-07 17:37:00,
2013-03-07 09:42:00,55.4,33.8,30.23,East,94,2.0,0.0,44,0.00,,,0.08,WeatherTracker,2013-03-07 17:42:00,
2013-03-07 09:47:00,55.6,33.8,30.23,NE,47,0.0,0.0,44,0.00,,,0.08,WeatherTracker,2013-03-07 17:47:00,
2013-03-07 09:52:00,55.8,33.8,30.23,NE,52,3.0,3.0,44,0.00,,,0.08,WeatherTracker,2013-03-07 17:52:00,
2013-03-07 09:57:00,55.8,33.8,30.23,ENE,60,0.0,0.0,43,0.00,,,0.08,WeatherTracker,2013-03-07 17:57:00,
2013-03-07 10:02:00,55.9,33.8,30.23,ENE,71,0.0,0.0,43,0.00,,,0.08,WeatherTracker,2013-03-07 18:02:00,
2013-03-07 10:07:00,56.1,33.8,30.23,ESE,104,0.0,0.0,43,0.00,,,0.08,WeatherTracker,2013-03-07 18:07:00,
2013-03-07 10:12:00,56.3,33.8,30.23,ESE,104,0.0,0.0,42,0.00,,,0.08,WeatherTracker,2013-03-07 18:12:00,
2013-03-07 10:17:00,56.3,33.8,30.23,ESE,104,0.0,0.0,41,0.00,,,0.08,WeatherTracker,2013-03-07 18:17:00,
2013-03-07 10:22:00,56.3,33.8,30.23,East,100,0.0,0.0,40,0.00,,,0.08,WeatherTracker,2013-03-07 18:22:00,
2013-03-07 10:27:00,56.3,31.7,30.23,ESE,103,0.0,0.0,39,0.00,,,0.08,WeatherTracker,2013-03-07 18:27:00,
2013-03-07 10:32:00,56.3,31.7,30.23,ESE,103,0.0,0.0,39,0.00,,,0.08,WeatherTracker,2013-03-07 18:32:00,
2013-03-07 10:37:00,56.3,31.7,30.23,ESE,103,0.0,0.0,39,0.00,,,0.08,WeatherTracker,2013-03-07 18:37:00,
2013-03-07 10:42:00,56.3,31.7,30.23,WNW,283,4.0,4.0,39,0.00,,,0.08,WeatherTracker,2013-03-07 18:42:00,
2013-03-07 10:47:00,56.5,31.8,30.23,West,279,0.0,0.0,39,0.00,,,0.08,WeatherTracker,2013-03-07 18:47:00,
2013-03-07 10:52:00,56.8,32.1,30.23,NW,323,0.0,0.0,39,0.00,,,0.08,WeatherTracker,2013-03-07 18:52:00,
2013-03-07 10:57:00,56.8,31.5,30.23,NW,323,0.0,0.0,38,0.00,,,0.08,WeatherTracker,2013-03-07 18:57:00,
2013-03-07 11:02:00,57.0,32.3,30.23,NW,323,0.0,0.0,39,0.00,,,0.08,WeatherTracker,2013-03-07 19:02:00,
2013-03-07 11:07:00,57.2,31.8,30.23,WSW,249,0.0,0.0,38,0.00,,,0.08,WeatherTracker,2013-03-07 19:07:00,
2013-03-07 11:12:00,57.6,32.1,30.23,NW,311,0.0,0.0,38,0.00,,,0.08,WeatherTracker,2013-03-07 19:12:00,
2013-03-07 11:17:00,57.6,32.1,30.23,NNW,338,0.0,0.0,38,0.00,,,0.08,WeatherTracker,2013-03-07 19:17:00,
2013-03-07 11:23:00,57.6,31.5,30.23,North,357,0.0,0.0,37,0.00,,,0.08,WeatherTracker,2013-03-07 19:23:00,
2013-03-07 11:28:00,57.6,31.5,30.23,NNW,343,0.0,0.0,37,0.00,,,0.08,WeatherTracker,2013-03-07 19:28:00,
2013-03-07 11:33:00,57.4,30.7,30.23,NNW,344,0.0,0.0,36,0.00,,,0.08,WeatherTracker,2013-03-07 19:33:00,
2013-03-07 11:38:00,57.4,30.7,30.23,NNW,344,0.0,0.0,36,0.00,,,0.08,WeatherTracker,2013-03-07 19:38:00,
2013-03-07 11:43:00,57.6,30.8,30.23,NW,318,0.0,0.0,36,0.00,,,0.08,WeatherTracker,2013-03-07 19:43:00,
2013-03-07 11:48:00,57.6,30.8,30.23,NW,305,0.0,0.0,36,0.00,,,0.08,WeatherTracker,2013-03-07 19:48:00,
2013-03-07 11:53:00,57.6,30.1,30.23,SSW,209,0.0,0.0,35,0.00,,,0.08,WeatherTracker,2013-03-07 19:53:00,
2013-03-07 11:58:00,57.4,30.0,30.23,SSW,208,0.0,0.0,35,0.00,,,0.08,WeatherTracker,2013-03-07 19:58:00,
2013-03-07 12:03:00,57.4,30.0,30.23,SSW,209,0.0,0.0,35,0.00,,,0.08,WeatherTracker,2013-03-07 20:03:00,
2013-03-07 12:08:00,57.4,30.0,30.20,ESE,102,0.0,0.0,35,0.00,,,0.08,WeatherTracker,2013-03-07 20:08:00,
2013-03-07 12:13:00,57.4,30.0,30.20,WSW,244,0.0,0.0,35,0.00,,,0.08,WeatherTracker,2013-03-07 20:13:00,
2013-03-07 12:18:00,57.6,30.1,30.20,WSW,251,4.0,4.0,35,0.00,,,0.08,WeatherTracker,2013-03-07 20:18:00,
2013-03-07 12:23:00,57.7,30.3,30.20,WSW,249,4.0,6.0,35,0.00,,,0.08,WeatherTracker,2013-03-07 20:23:00,
2013-03-07 12:28:00,57.9,30.4,30.20,West,267,0.0,0.0,35,0.00,,,0.08,WeatherTracker,2013-03-07 20:28:00,
2013-03-07 12:33:00,58.1,29.9,30.20,SW,222,2.0,0.0,34,0.00,,,0.08,WeatherTracker,2013-03-07 20:33:00,
2013-03-07 12:38:00,58.3,30.0,30.20,West,265,3.0,3.0,34,0.00,,,0.08,WeatherTracker,2013-03-07 20:38:00,
2013-03-07 12:43:00,58.5,27.9,30.20,SSW,200,0.0,0.0,31,0.00,,,0.08,WeatherTracker,2013-03-07 20:43:00,
2013-03-07 12:48:00,58.6,28.1,30.20,WSW,246,0.0,0.0,31,0.00,,,0.08,WeatherTracker,2013-03-07 20:48:00,
2013-03-07 12:53:00,59.4,27.9,30.20,SE,133,0.0,3.0,30,0.00,,,0.08,WeatherTracker,2013-03-07 20:53:00,
2013-03-07 12:58:00,60.1,27.7,30.20,West,276,4.0,4.0,29,0.00,,,0.08,WeatherTracker,2013-03-07 20:58:00,
2013-03-07 13:03:00,60.8,27.5,30.20,NW,316,0.0,0.0,28,0.00,,,0.08,WeatherTracker,2013-03-07 21:03:00,
2013-03-07 13:08:00,61.5,27.2,30.17,SSW,198,0.0,0.0,27,0.00,,,0.08,WeatherTracker,2013-03-07 21:08:00,
2013-03-07 13:13:00,61.9,26.6,30.17,SW,229,0.0,0.0,26,0.00,,,0.08,WeatherTracker,2013-03-07 21:13:00,
2013-03-07 13:18:00,61.9,25.7,30.17,NW,314,0.0,0.0,25,0.00,,,0.08,WeatherTracker,2013-03-07 21:18:00,
2013-03-07 13:23:00,61.7,26.5,30.17,WSW,243,4.0,6.0,26,0.00,,,0.08,WeatherTracker,2013-03-07 21:23:00,
2013-03-07 13:28:00,61.7,25.5,30.17,SSW,192,0.0,0.0,25,0.00,,,0.08,WeatherTracker,2013-03-07 21:28:00,
2013-03-07 13:33:00,61.3,25.2,30.17,SSE,152,0.0,0.0,25,0.00,,,0.08,WeatherTracker,2013-03-07 21:33:00,
2013-03-07 13:38:00,61.2,25.1,30.17,North,6,0.0,5.0,25,0.00,,,0.08,WeatherTracker,2013-03-07 21:38:00,
2013-03-07 13:43:00,61.2,25.1,30.17,WSW,242,0.0,0.0,25,0.00,,,0.08,WeatherTracker,2013-03-07 21:43:00,
2013-03-07 13:48:00,61.2,25.1,30.17,WSW,242,3.0,3.0,25,0.00,,,0.08,WeatherTracker,2013-03-07 21:48:00,
2013-03-07 13:53:00,61.0,24.9,30.17,WSW,250,0.0,0.0,25,0.00,,,0.08,WeatherTracker,2013-03-07 21:53:00,
2013-03-07 13:58:00,60.8,24.8,30.17,SSW,195,0.0,4.0,25,0.00,,,0.08,WeatherTracker,2013-03-07 21:58:00,
2013-03-07 14:03:00,60.6,24.6,30.17,SW,222,4.0,4.0,25,0.00,,,0.08,WeatherTracker,2013-03-07 22:03:00,
2013-03-07 14:08:00,60.4,24.5,30.17,SW,214,4.0,0.0,25,0.00,,,0.08,WeatherTracker,2013-03-07 22:08:00,
2013-03-07 14:13:00,60.4,24.5,30.17,South,191,4.0,5.0,25,0.00,,,0.08,WeatherTracker,2013-03-07 22:13:00,
2013-03-07 14:18:00,60.3,25.2,30.17,WSW,240,4.0,4.0,26,0.00,,,0.08,WeatherTracker,2013-03-07 22:18:00,
2013-03-07 14:23:00,60.1,25.1,30.17,SSW,198,5.0,6.0,26,0.00,,,0.08,WeatherTracker,2013-03-07 22:23:00,
2013-03-07 14:28:00,60.1,24.2,30.17,SSW,204,5.0,6.0,25,0.00,,,0.08,WeatherTracker,2013-03-07 22:28:00,
2013-03-07 14:33:00,60.3,24.3,30.17,SSE,166,3.0,3.0,25,0.00,,,0.08,WeatherTracker,2013-03-07 22:33:00,
2013-03-07 14:38:00,60.3,24.3,30.17,WSW,240,5.0,5.0,25,0.00,,,0.08,WeatherTracker,2013-03-07 22:38:00,
2013-03-07 14:43:00,60.4,24.5,30.17,West,259,5.0,5.0,25,0.00,,,0.08,WeatherTracker,2013-03-07 22:43:00,
2013-03-07 14:48:00,60.4,24.5,30.17,South,187,3.0,6.0,25,0.00,,,0.08,WeatherTracker,2013-03-07 22:48:00,
2013-03-07 14:53:00,60.4,24.5,30.17,SW,225,4.0,6.0,25,0.00,,,0.08,WeatherTracker,2013-03-07 22:53:00,
2013-03-07 14:58:00,60.3,24.3,30.17,West,263,4.0,4.0,25,0.00,,,0.08,WeatherTracker,2013-03-07 22:58:00,
2013-03-07 15:03:00,60.3,24.3,30.17,WSW,246,5.0,5.0,25,0.00,,,0.08,WeatherTracker,2013-03-07 23:03:00,
2013-03-07 15:08:00,60.3,24.3,30.17,SW,221,4.0,4.0,25,0.00,,,0.08,WeatherTracker,2013-03-07 23:08:00,
2013-03-07 15:13:00,60.3,24.3,30.17,WSW,252,4.0,4.0,25,0.00,,,0.08,WeatherTracker,2013-03-07 23:13:00,
2013-03-07 15:18:00,60.3,24.3,30.17,WSW,242,5.0,5.0,25,0.00,,,0.08,WeatherTracker,2013-03-07 23:18:00,
2013-03-07 15:23:00,60.3,24.3,30.17,SW,222,4.0,4.0,25,0.00,,,0.08,WeatherTracker,2013-03-07 23:23:00,
2013-03-07 15:28:00,60.4,24.5,30.17,SSW,202,4.0,5.0,25,0.00,,,0.08,WeatherTracker,2013-03-07 23:28:00,
2013-03-07 15:33:00,60.4,24.5,30.17,WSW,243,3.0,3.0,25,0.00,,,0.08,WeatherTracker,2013-03-07 23:33:00,
2013-03-07 15:38:00,60.6,24.6,30.17,SSW,204,5.0,5.0,25,0.00,,,0.08,WeatherTracker,2013-03-07 23:38:00,
2013-03-07 15:43:00,60.4,23.5,30.17,WSW,251,3.0,4.0,24,0.00,,,0.08,WeatherTracker,2013-03-07 23:43:00,
2013-03-07 15:48:00,60.4,23.5,30.17,WSW,240,4.0,5.0,24,0.00,,,0.08,WeatherTracker,2013-03-07 23:48:00,
2013-03-07 15:53:00,60.3,23.3,30.17,West,269,5.0,5.0,24,0.00,,,0.08,WeatherTracker,2013-03-07 23:53:00,
2013-03-07 15:58:00,60.3,23.3,30.17,WSW,254,0.0,0.0,24,0.00,,,0.08,WeatherTracker,2013-03-07 23:58:00,
2013-03-07 16:03:00,60.1,24.2,30.17,SSW,210,3.0,3.0,25,0.00,,,0.08,WeatherTracker,2013-03-08 00:03:00,
2013-03-07 16:08:00,59.9,24.0,30.17,SSW,202,4.0,4.0,25,0.00,,,0.08,WeatherTracker,2013-03-08 00:08:00,
2013-03-07 16:13:00,59.9,24.0,30.17,WSW,237,2.0,0.0,25,0.00,,,0.08,WeatherTracker,2013-03-08 00:13:00,
2013-03-07 16:18:00,59.9,24.0,30.17,West,272,6.0,8.0,25,0.00,,,0.08,WeatherTracker,2013-03-08 00:18:00,
2013-03-07 16:23:00,59.9,24.0,30.17,SSW,203,4.0,8.0,25,0.00,,,0.08,WeatherTracker,2013-03-08 00:23:00,
2013-03-07 16:28:00,59.7,23.8,30.17,SW,228,5.0,8.0,25,0.00,,,0.08,WeatherTracker,2013-03-08 00:28:00,
2013-03-07 16:33:00,59.5,23.7,30.17,SSW,212,6.0,6.0,25,0.00,,,0.08,WeatherTracker,2013-03-08 00:33:00,
2013-03-07 16:38:00,59.4,23.5,30.17,West,276,4.0,4.0,25,0.00,,,0.08,WeatherTracker,2013-03-08 00:38:00,
2013-03-07 16:43:00,59.2,23.4,30.17,SSW,212,5.0,6.0,25,0.00,,,0.08,WeatherTracker,2013-03-08 00:43:00,
2013-03-07 16:48:00,59.2,23.4,30.17,SW,230,4.0,4.0,25,0.00,,,0.08,WeatherTracker,2013-03-08 00:48:00,
2013-03-07 16:53:00,59.2,23.4,30.17,South,174,0.0,0.0,25,0.00,,,0.08,WeatherTracker,2013-03-08 00:53:00,
2013-03-07 16:58:00,59.0,24.2,30.17,WSW,252,4.0,4.0,26,0.00,,,0.08,WeatherTracker,2013-03-08 00:58:00,
2013-03-07 17:03:00,58.8,24.0,30.17,SSW,213,5.0,5.0,26,0.00,,,0.08,WeatherTracker,2013-03-08 01:03:00,
2013-03-07 17:08:00,58.8,24.9,30.17,WSW,244,3.0,3.0,27,0.00,,,0.08,WeatherTracker,2013-03-08 01:08:00,
2013-03-07 17:13:00,58.5,24.6,30.17,West,262,4.0,5.0,27,0.00,,,0.08,WeatherTracker,2013-03-08 01:13:00,
2013-03-07 17:18:00,58.3,24.5,30.17,SW,233,3.0,3.0,27,0.00,,,0.08,WeatherTracker,2013-03-08 01:18:00,
2013-03-07 17:23:00,58.1,24.3,30.17,SW,222,3.0,3.0,27,0.00,,,0.08,WeatherTracker,2013-03-08 01:23:00,
2013-03-07 17:28:00,58.1,24.3,30.17,WSW,239,3.0,3.0,27,0.00,,,0.08,WeatherTracker,2013-03-08 01:28:00,
2013-03-07 17:33:00,57.9,25.0,30.17,SW,218,2.0,3.0,28,0.00,,,0.08,WeatherTracker,2013-03-08 01:33:00,
2013-03-07 17:38:00,57.7,24.9,30.17,South,181,3.0,4.0,28,0.00,,,0.08,WeatherTracker,2013-03-08 01:38:00,
2013-03-07 17:43:00,57.6,24.7,30.17,South,178,4.0,6.0,28,0.00,,,0.08,WeatherTracker,2013-03-08 01:43:00,
2013-03-07 17:48:00,57.2,24.4,30.17,SW,219,0.0,0.0,28,0.00,,,0.08,WeatherTracker,2013-03-08 01:48:00,
2013-03-07 17:53:00,57.2,25.2,30.17,South,188,0.0,0.0,29,0.00,,,0.08,WeatherTracker,2013-03-08 01:53:00,
2013-03-07 17:58:00,57.0,25.1,30.17,WSW,246,0.0,0.0,29,0.00,,,0.08,WeatherTracker,2013-03-08 01:58:00,
2013-03-07 18:03:00,56.8,24.9,30.17,South,186,0.0,4.0,29,0.00,,,0.08,WeatherTracker,2013-03-08 02:03:00,
2013-03-07 18:08:00,56.8,24.9,30.17,SW,228,4.0,4.0,29,0.00,,,0.08,WeatherTracker,2013-03-08 02:08:00,
2013-03-07 18:13:00,56.8,24.9,30.17,WSW,248,0.0,0.0,29,0.00,,,0.08,WeatherTracker,2013-03-08 02:13:00,
2013-03-07 18:18:00,56.7,24.8,30.17,South,183,3.0,4.0,29,0.00,,,0.08,WeatherTracker,2013-03-08 02:18:00,
2013-03-07 18:23:00,56.7,25.6,30.17,SW,234,0.0,0.0,30,0.00,,,0.08,WeatherTracker,2013-03-08 02:23:00,
2013-03-07 18:28:00,56.5,24.6,30.17,SSW,194,0.0,0.0,29,0.00,,,0.08,WeatherTracker,2013-03-08 02:28:00,
2013-03-07 18:33:00,56.5,25.4,30.17,South,184,0.0,0.0,30,0.00,,,0.08,WeatherTracker,2013-03-08 02:33:00,
2013-03-07 18:38:00,56.3,25.3,30.17,WSW,256,0.0,0.0,30,0.00,,,0.08,WeatherTracker,2013-03-08 02:38:00,
2013-03-07 18:43:00,56.5,25.4,30.17,WSW,246,4.0,4.0,30,0.00,,,0.08,WeatherTracker,2013-03-08 02:43:00,
2013-03-07 18:48:00,56.5,25.4,30.17,South,173,0.0,0.0,30,0.00,,,0.08,WeatherTracker,2013-03-08 02:48:00,
2013-03-07 18:53:00,56.3,25.3,30.17,SE,138,0.0,0.0,30,0.00,,,0.08,WeatherTracker,2013-03-08 02:53:00,
2013-03-07 18:58:00,56.1,25.9,30.17,SE,137,0.0,0.0,31,0.00,,,0.08,WeatherTracker,2013-03-08 02:58:00,
2013-03-07 19:03:00,55.9,25.7,30.17,SE,137,0.0,0.0,31,0.00,,,0.08,WeatherTracker,2013-03-08 03:03:00,
2013-03-07 19:08:00,55.9,26.5,30.17,East,101,0.0,0.0,32,0.00,,,0.08,WeatherTracker,2013-03-08 03:08:00,
2013-03-07 19:13:00,55.8,25.6,30.17,ESE,105,0.0,0.0,31,0.00,,,0.08,WeatherTracker,2013-03-08 03:13:00,
2013-03-07 19:18:00,55.6,26.2,30.17,ESE,104,0.0,0.0,32,0.00,,,0.08,WeatherTracker,2013-03-08 03:18:00,
2013-03-07 19:23:00,55.6,26.2,30.17,ESE,104,0.0,0.0,32,0.00,,,0.08,WeatherTracker,2013-03-08 03:23:00,
2013-03-07 19:28:00,55.4,26.0,30.17,ESE,105,0.0,0.0,32,0.00,,,0.08,WeatherTracker,2013-03-08 03:28:00,
2013-03-07 19:33:00,55.2,26.6,30.17,SE,127,0.0,0.0,33,0.00,,,0.08,WeatherTracker,2013-03-08 03:33:00,
2013-03-07 19:38:00,55.2,26.6,30.14,SE,129,0.0,0.0,33,0.00,,,0.08,WeatherTracker,2013-03-08 03:38:00,
2013-03-07 19:43:00,55.2,26.6,30.14,SE,142,0.0,0.0,33,0.00,,,0.08,WeatherTracker,2013-03-08 03:43:00,
2013-03-07 19:48:00,55.2,27.3,30.14,SE,144,0.0,0.0,34,0.00,,,0.08,WeatherTracker,2013-03-08 03:48:00,
2013-03-07 19:53:00,55.2,27.3,30.17,SSE,156,0.0,0.0,34,0.00,,,0.08,WeatherTracker,2013-03-08 03:53:00,
2013-03-07 19:58:00,55.0,27.2,30.17,SSE,156,0.0,0.0,34,0.00,,,0.08,WeatherTracker,2013-03-08 03:58:00,
2013-03-07 20:03:00,55.0,27.2,30.17,SSE,156,0.0,0.0,34,0.00,,,0.08,WeatherTracker,2013-03-08 04:03:00,
2013-03-07 20:08:00,54.9,27.0,30.14,ESE,108,0.0,0.0,34,0.00,,,0.08,WeatherTracker,2013-03-08 04:08:00,
2013-03-07 20:13:00,54.9,27.7,30.14,NE,40,0.0,0.0,35,0.00,,,0.08,WeatherTracker,2013-03-08 04:13:00,
2013-03-07 20:18:00,54.5,27.4,30.14,NE,44,2.0,3.0,35,0.00,,,0.08,WeatherTracker,2013-03-08 04:18:00,
2013-03-07 20:23:00,54.3,27.3,30.14,NE,38,3.0,4.0,35,0.00,,,0.08,WeatherTracker,2013-03-08 04:23:00,
2013-03-07 20:28:00,54.1,27.1,30.14,East,85,0.0,0.0,35,0.00,,,0.08,WeatherTracker,2013-03-08 04:28:00,
2013-03-07 20:33:00,54.0,26.9,30.14,East,85,0.0,0.0,35,0.00,,,0.08,WeatherTracker,2013-03-08 04:33:00,
2013-03-07 20:38:00,53.8,26.8,30.14,NE,55,0.0,0.0,35,0.00,,,0.08,WeatherTracker,2013-03-08 04:38:00,
2013-03-07 20:43:00,54.0,27.6,30.14,NE,55,0.0,0.0,36,0.00,,,0.08,WeatherTracker,2013-03-08 04:43:00,
2013-03-07 20:48:00,53.8,27.5,30.14,NE,55,0.0,0.0,36,0.00,,,0.08,WeatherTracker,2013-03-08 04:48:00,
2013-03-07 20:53:00,53.8,27.5,30.14,NE,55,0.0,0.0,36,0.00,,,0.08,WeatherTracker,2013-03-08 04:53:00,
2013-03-07 20:58:00,53.8,27.5,30.14,NE,55,0.0,0.0,36,0.00,,,0.08,WeatherTracker,2013-03-08 04:58:00,
2013-03-07 21:00:00,53.6,27.3,30.14,NE,55,0.0,0.0,36,0.00,,,0.08,WeatherTracker,2013-03-08 05:00:00,
2013-03-07 21:02:00,53.6,27.3,30.14,NE,55,0.0,0.0,36,0.00,,,0.08,WeatherTracker,2013-03-08 05:02:00,
2013-03-07 21:07:00,53.6,27.3,30.14,ESE,116,0.0,0.0,36,0.00,,,0.08,WeatherTracker,2013-03-08 05:07:00,
2013-03-07 21:12:00,53.4,27.1,30.14,East,85,0.0,0.0,36,0.00,,,0.08,WeatherTracker,2013-03-08 05:12:00,
2013-03-07 21:17:00,53.2,27.6,30.14,ENE,64,0.0,0.0,37,0.00,,,0.08,WeatherTracker,2013-03-08 05:17:00,
2013-03-07 21:22:00,53.2,27.6,30.14,ENE,64,0.0,0.0,37,0.00,,,0.08,WeatherTracker,2013-03-08 05:22:00,
2013-03-07 21:27:00,53.2,27.6,30.14,ENE,64,0.0,0.0,37,0.00,,,0.08,WeatherTracker,2013-03-08 05:27:00,
2013-03-07 21:32:00,53.2,27.6,30.14,ENE,64,0.0,0.0,37,0.00,,,0.08,WeatherTracker,2013-03-08 05:32:00,
2013-03-07 21:37:00,53.2,27.6,30.14,ENE,64,0.0,0.0,37,0.00,,,0.08,WeatherTracker,2013-03-08 05:37:00,
2013-03-07 21:42:00,53.2,27.6,30.14,ENE,64,0.0,0.0,37,0.00,,,0.08,WeatherTracker,2013-03-08 05:42:00,
2013-03-07 21:47:00,53.2,27.6,30.14,ESE,110,0.0,0.0,37,0.00,,,0.08,WeatherTracker,2013-03-08 05:47:00,
2013-03-07 21:52:00,53.1,27.5,30.14,ESE,110,0.0,0.0,37,0.00,,,0.08,WeatherTracker,2013-03-08 05:52:00,
2013-03-07 21:57:00,53.2,27.6,30.14,ESE,108,0.0,0.0,37,0.00,,,0.08,WeatherTracker,2013-03-08 05:57:00,
2013-03-07 22:02:00,53.1,27.5,30.14,NE,46,0.0,0.0,37,0.00,,,0.08,WeatherTracker,2013-03-08 06:02:00,
2013-03-07 22:07:00,53.1,27.5,30.14,ENE,61,0.0,0.0,37,0.00,,,0.08,WeatherTracker,2013-03-08 06:07:00,
2013-03-07 22:12:00,53.1,27.5,30.14,ENE,69,0.0,0.0,37,0.00,,,0.08,WeatherTracker,2013-03-08 06:12:00,
2013-03-07 22:17:00,53.1,27.5,30.14,ENE,69,0.0,0.0,37,0.00,,,0.08,WeatherTracker,2013-03-08 06:17:00,
2013-03-07 22:22:00,53.1,27.5,30.11,ENE,69,0.0,0.0,37,0.00,,,0.08,WeatherTracker,2013-03-08 06:22:00,
2013-03-07 22:27:00,53.1,27.5,30.11,ENE,69,0.0,0.0,37,0.00,,,0.08,WeatherTracker,2013-03-08 06:27:00,
2013-03-07 22:32:00,53.1,27.5,30.11,ENE,69,0.0,0.0,37,0.00,,,0.08,WeatherTracker,2013-03-08 06:32:00,
2013-03-07 22:37:00,53.1,27.5,30.11,ENE,69,0.0,0.0,37,0.00,,,0.08,WeatherTracker,2013-03-08 06:37:00,
2013-03-07 22:42:00,53.1,27.5,30.11,ENE,69,0.0,0.0,37,0.00,,,0.08,WeatherTracker,2013-03-08 06:42:00,
2013-03-07 22:47:00,53.1,27.5,30.11,ENE,75,0.0,0.0,37,0.00,,,0.08,WeatherTracker,2013-03-08 06:47:00,
2013-03-07 22:52:00,52.9,27.3,30.11,NE,45,0.0,0.0,37,0.00,,,0.08,WeatherTracker,2013-03-08 06:52:00,
2013-03-07 22:57:00,52.9,27.3,30.11,NE,49,3.0,5.0,37,0.00,,,0.08,WeatherTracker,2013-03-08 06:57:00,
2013-03-07 23:02:00,52.9,27.3,30.11,ENE,59,0.0,0.0,37,0.00,,,0.08,WeatherTracker,2013-03-08 07:02:00,
2013-03-07 23:07:00,52.9,27.3,30.11,ENE,59,0.0,0.0,37,0.00,,,0.08,WeatherTracker,2013-03-08 07:07:00,
2013-03-07 23:12:00,52.9,26.7,30.11,East,101,0.0,0.0,36,0.00,,,0.08,WeatherTracker,2013-03-08 07:12:00,
2013-03-07 23:17:00,52.7,26.5,30.11,ESE,106,0.0,0.0,36,0.00,,,0.08,WeatherTracker,2013-03-08 07:17:00,
2013-03-07 23:22:00,52.7,26.5,30.08,ESE,109,0.0,0.0,36,0.00,,,0.08,WeatherTracker,2013-03-08 07:22:00,
2013-03-07 23:27:00,52.7,26.5,30.08,SE,131,3.0,3.0,36,0.00,,,0.08,WeatherTracker,2013-03-08 07:27:00,
2013-03-07 23:32:00,52.7,27.2,30.08,ESE,113,0.0,0.0,37,0.00,,,0.08,WeatherTracker,2013-03-08 07:32:00,
2013-03-07 23:37:00,52.7,26.5,30.08,ESE,113,0.0,0.0,36,0.00,,,0.08,WeatherTracker,2013-03-08 07:37:00,
2013-03-07 23:42:00,52.7,26.5,30.08,ESE,113,0.0,0.0,36,0.00,,,0.08,WeatherTracker,2013-03-08 07:42:00,
2013-03-07 23:47:00,52.7,26.5,30.08,ENE,63,0.0,0.0,36,0.00,,,0.08,WeatherTracker,2013-03-08 07:47:00,
2013-03-07 23:52:00,52.7,26.5,30.08,ENE,68,0.0,0.0,36,0.00,,,0.08,WeatherTracker,2013-03-08 07:52:00,
2013-03-07 23:57:00,52.5,26.3,30.08,ENE,68,0.0,0.0,36,0.00,,,0.08,WeatherTracker,2013-03-08 07:57:00,